EW8080 Weather Reports


Display with metric or nautical units.
time (UTC)temp
F
wind
direction
speed
MPH
gust
MPH
rain 1hr
in
rain 24hr
in
rain mn
in
humidity
%
barometer
mb
20260509203003 59 218 10.0 22.0 0.00 0.05 0.05 77 1013.1
20260509202003 59 206 9.0 17.0 0.00 0.05 0.05 77 1013.2
20260509201003 59 224 8.0 18.0 0.00 0.05 0.05 78 1013.1
20260509200003 59 219 9.0 24.0 0.00 0.05 0.05 80 1013.2
20260509195003 60 207 9.0 24.0 0.00 0.05 0.05 76 1013.1
20260509194003 60 198 11.0 28.0 0.00 0.05 0.05 75 1013.3
20260509193003 60 198 8.0 28.0 0.00 0.05 0.05 75 1013.5
20260509192003 60 213 11.0 28.0 0.00 0.05 0.05 74 1013.5
20260509191003 60 232 9.0 15.0 0.00 0.05 0.05 75 1013.5
20260509190003 60 198 7.0 16.0 0.00 0.05 0.05 75 1013.5
20260509185003 60 210 7.0 18.0 0.00 0.05 0.05 75 1013.5
20260509184003 60 193 11.0 18.0 0.00 0.05 0.05 73 1013.7
20260509183024 61 176 11.0 17.0 0.00 0.05 0.05 71 1013.5
20260509182003 62 192 10.0 18.0 0.00 0.05 0.05 71 1013.7
20260509181004 62 196 9.0 20.0 0.00 0.05 0.05 71 1013.7
20260509180003 63 200 9.0 20.0 0.00 0.05 0.05 70 1014.0
20260509175003 62 222 7.0 20.0 0.00 0.05 0.05 73 1013.6
20260509174003 61 205 11.0 20.0 0.00 0.05 0.05 71 1014.1
20260509173004 61 191 10.0 16.0 0.00 0.05 0.05 71 1014.1
20260509172003 61 206 7.0 16.0 0.00 0.05 0.05 71 1014.2
20260509171024 61 209 10.0 21.0 0.00 0.05 0.05 70 1014.3
20260509170024 61 219 7.0 21.0 0.00 0.05 0.05 69 1014.4
20260509165003 62 216 9.0 16.0 0.00 0.05 0.05 67 1014.3
20260509164003 62 195 11.0 20.0 0.00 0.05 0.05 67 1014.1
20260509163003 62 204 9.0 20.0 0.00 0.05 0.05 67 1014.1
20260509162024 62 194 12.0 22.0 0.00 0.05 0.05 66 1014.3
20260509161024 62 231 9.0 22.0 0.00 0.05 0.05 65 1014.4
20260509160024 62 196 10.0 25.0 0.00 0.05 0.05 66 1014.4
20260509155003 61 179 11.0 25.0 0.00 0.05 0.05 67 1014.5
20260509154003 61 203 10.0 24.0 0.00 0.05 0.05 71 1014.4
20260509153003 60 180 15.0 21.0 0.00 0.05 0.05 70 1014.7
20260509152003 60 183 10.0 20.0 0.00 0.05 0.05 71 1014.8
20260509151004 59 170 13.0 21.0 0.00 0.05 0.05 71 1014.8
20260509150003 59 182 13.0 21.0 0.00 0.05 0.05 70 1014.8
20260509145003 58 175 14.0 24.0 0.00 0.05 0.05 71 1014.9
20260509144003 59 148 11.0 24.0 0.00 0.05 0.05 72 1014.6
20260509143024 58 155 7.0 17.0 0.00 0.05 0.05 76 1015.0
20260509142003 57 166 11.0 17.0 0.00 0.05 0.05 78 1014.7
20260509141003 56 183 6.0 17.0 0.00 0.05 0.05 80 1014.6
20260509140003 56 160 11.0 17.0 0.00 0.05 0.05 81 1014.9
20260509135003 55 175 11.0 17.0 0.00 0.05 0.05 81 1015.0
20260509134003 55 160 9.0 17.0 0.00 0.05 0.05 81 1015.3
20260509133003 54 172 11.0 17.0 0.00 0.05 0.05 84 1015.3
20260509132003 54 175 8.0 14.0 0.00 0.05 0.05 83 1015.1
20260509131003 54 168 7.0 13.0 0.00 0.05 0.05 81 1015.4
20260509130003 55 176 11.0 13.0 0.00 0.05 0.05 81 1015.6
20260509125003 55 163 8.0 12.0 0.00 0.05 0.05 81 1015.6
20260509124003 55 159 6.0 9.0 0.01 0.05 0.05 84 1015.1
20260509123003 54 102 4.0 7.0 0.02 0.05 0.05 87 1015.2
20260509122003 54 102 5.0 7.0 0.02 0.05 0.05 92 1015.3
20260509121024 52 119 2.0 5.0 0.02 0.05 0.05 94 1015.4
20260509120003 51 126 3.0 5.0 0.03 0.05 0.05 94 1015.5
20260509115003 50 50 2.0 3.0 0.04 0.05 0.05 95 1015.2
20260509114003 49 146 1.0 4.0 0.04 0.04 0.04 94 1015.6
20260509113003 49 73 3.0 4.0 0.03 0.04 0.04 93 1015.6
20260509112003 48 76 3.0 5.0 0.03 0.03 0.03 92 1015.9
20260509111003 48 51 1.0 5.0 0.02 0.02 0.02 92 1016.0
20260509110004 48 135 3.0 5.0 0.02 0.02 0.02 91 1015.9
20260509105003 48 66 2.0 6.0 0.01 0.01 0.01 90 1015.9
20260509104024 48 194 2.0 6.0 0.00 0.00 0.00 90 1015.7
20260509103003 47 182 4.0 6.0 0.00 0.00 0.00 88 1015.5
20260509102024 46 143 2.0 4.0 0.00 0.00 0.00 87 1015.4
20260509101003 46 252 2.0 5.0 0.00 0.00 0.00 87 1015.2
20260509100003 46 175 3.0 5.0 0.00 0.00 0.00 87 1015.2
20260509095003 45 164 3.0 5.0 0.00 0.00 0.00 86 1014.8
20260509094003 45 193 3.0 5.0 0.00 0.00 0.00 85 1014.8
20260509093003 45 159 3.0 6.0 0.00 0.00 0.00 86 1014.6
20260509092003 45 127 2.0 6.0 0.00 0.00 0.00 86 1014.4
20260509091003 45 54 3.0 4.0 0.00 0.00 0.00 88 1014.4
20260509090003 45 21 0.0 4.0 0.00 0.00 0.00 85 1014.4
20260509085003 44 163 3.0 4.0 0.00 0.00 0.00 86 1014.3
20260509084003 44 45 3.0 4.0 0.00 0.00 0.00 87 1014.3
20260509083003 44 34 3.0 4.0 0.00 0.00 0.00 85 1014.3
20260509082003 44 62 1.0 4.0 0.00 0.00 0.00 83 1014.3
20260509081003 44 104 1.0 5.0 0.00 0.00 0.00 85 1014.5
20260509080003 44 44 3.0 5.0 0.00 0.00 0.00 84 1014.5
20260509075003 44 41 3.0 4.0 0.00 0.00 0.00 83 1014.9
20260509074003 44 59 1.0 4.0 0.00 0.00 0.00 81 1014.7
20260509073003 44 81 4.0 4.0 0.00 0.00 0.00 82 1014.7
20260509072003 44 43 3.0 4.0 0.00 0.00 0.00 83 1014.7
20260509071002 44 91 2.0 4.0 0.00 0.00 0.00 81 1014.7
20260509070003 44 72 2.0 4.0 0.00 0.00 0.00 81 1014.8
20260509065003 44 45 3.0 5.0 0.00 0.00 0.00 81 1014.7
20260509064024 44 91 1.0 5.0 0.00 0.00 0.00 80 1014.7
20260509063003 44 115 1.0 4.0 0.00 0.00 0.00 79 1014.6
20260509062003 44 217 4.0 4.0 0.00 0.00 0.00 79 1014.8
20260509061002 44 349 0.0 3.0 0.00 0.00 0.00 79 1014.6
20260509060003 44 304 0.0 3.0 0.00 0.00 0.00 78 1014.5
20260509055025 44 215 1.0 3.0 0.00 0.00 0.00 77 1014.4
20260509054002 44 209 1.0 4.0 0.00 0.00 0.00 77 1014.6
20260509053002 44 59 0.0 4.0 0.00 0.00 0.00 77 1014.4
20260509052003 44 258 4.0 4.0 0.00 0.00 0.00 76 1014.5
20260509051003 44 190 2.0 5.0 0.00 0.00 0.00 76 1014.5
20260509050003 44 301 1.0 5.0 0.00 0.00 0.00 76 1014.6
20260509045003 44 8 2.0 5.0 0.00 0.00 0.00 75 1014.4
20260509044004 45 225 1.0 4.0 0.00 0.00 0.00 74 1014.5
20260509043003 46 228 1.0 5.0 0.00 0.00 0.00 73 1014.5
20260509042025 46 3 3.0 5.0 0.00 0.00 0.00 74 1014.5
20260509041003 46 243 2.0 6.0 0.00 0.00 0.00 73 1014.4
20260509040003 46 222 4.0 6.0 0.00 0.00 0.00 73 1014.3
20260509035003 47 197 2.0 6.0 0.00 0.00 0.00 72 1014.3
20260509034002 47 295 2.0 6.0 0.00 0.00 0.00 72 1014.0
20260509033004 48 207 2.0 6.0 0.00 0.00 0.00 70 1014.1
20260509032003 48 76 2.0 7.0 0.00 0.00 0.00 71 1014.2
20260509031024 48 227 3.0 7.0 0.00 0.00 0.00 72 1014.1
20260509030003 48 236 2.0 7.0 0.00 0.00 0.00 73 1014.2
20260509025024 49 208 4.0 6.0 0.00 0.00 0.00 74 1013.9
20260509024024 49 228 2.0 8.0 0.00 0.00 0.00 74 1013.6
20260509023003 49 222 4.0 8.0 0.00 0.00 0.00 74 1013.7
20260509022003 50 231 5.0 8.0 0.00 0.00 0.00 73 1013.5
20260509021003 50 241 3.0 5.0 0.00 0.00 0.00 73 1013.4
20260509020003 50 264 0.0 4.0 0.00 0.00 0.00 74 1013.5
20260509015004 50 270 0.0 5.0 0.00 0.00 0.00 74 1013.2
20260509014003 50 204 3.0 5.0 0.00 0.00 0.00 74 1013.2
20260509013024 51 217 3.0 5.0 0.00 0.00 0.00 73 1013.0
20260509012003 51 215 4.0 6.0 0.00 0.00 0.00 72 1012.7
20260509011024 51 209 4.0 7.0 0.00 0.00 0.00 71 1012.6
20260509010003 52 208 5.0 7.0 0.00 0.00 0.00 70 1012.3
20260509005003 52 216 5.0 6.0 0.00 0.00 0.00 69 1012.3
20260509004003 52 211 5.0 6.0 0.00 0.00 0.00 69 1012.1
20260509003003 53 214 5.0 8.0 0.00 0.00 0.00 68 1012.0
20260509002003 53 207 5.0 8.0 0.00 0.00 0.00 67 1011.4
20260509001003 54 206 3.0 5.0 0.00 0.00 0.00 66 1011.2
20260509000003 54 197 5.0 8.0 0.00 0.00 0.00 66 1011.1
20260508235003 54 187 5.0 8.0 0.00 0.00 0.00 66 1010.8
20260508234003 55 192 3.0 9.0 0.00 0.00 0.00 63 1010.8
20260508233003 56 182 2.0 10.0 0.00 0.00 0.00 63 1010.8
20260508232003 56 207 5.0 10.0 0.00 0.00 0.00 62 1010.7
20260508231003 56 233 5.0 12.0 0.00 0.00 0.00 62 1010.6
20260508230003 57 212 8.0 13.0 0.00 0.00 0.00 60 1010.4
20260508225003 58 222 5.0 13.0 0.00 0.00 0.00 58 1010.4
20260508224003 58 247 7.0 13.0 0.00 0.00 0.00 46 1010.2
20260508223003 59 246 4.0 13.0 0.00 0.00 0.00 47 1010.3
20260508222003 59 266 4.0 17.0 0.00 0.00 0.00 47 1010.1
20260508221003 59 287 7.0 17.0 0.00 0.00 0.00 45 1010.1
20260508220003 59 326 10.0 19.0 0.00 0.00 0.00 46 1010.1
20260508215003 59 336 12.0 19.0 0.00 0.00 0.00 45 1010.1
20260508214003 60 268 8.0 17.0 0.00 0.00 0.00 47 1010.0
20260508213003 60 245 8.0 17.0 0.00 0.00 0.00 46 1009.8
20260508212003 59 327 9.0 18.0 0.00 0.00 0.00 46 1009.8
20260508211004 59 260 10.0 18.0 0.00 0.00 0.00 53 1009.9
20260508210024 59 287 9.0 18.0 0.00 0.00 0.00 54 1009.8
20260508205003 57 237 7.0 17.0 0.00 0.00 0.00 60 1009.8
20260508204025 57 240 8.0 19.0 0.00 0.00 0.00 59 1009.9